Temperature
7 7 7 7 7 7 7 7 7 8 8 8 8 8 8 8 8 8 8 8 8 8 8 7 7 7 7 7 6 6 6 6 5 5 5 4 4 3 3 2 2 1 1
6 6 6 6 6 6 6 7 7 7 7 7 7 7 7 7 7 7 7 7 7 7 7 6 6 6 6 6 6 5 5 5 5 4 4 3 3 2 2 1 1 1 1
6 6 6 6 6 6 6 6 6 6 6 6 6 6 6 7 6 6 6 6 6 6 6 6 5 5 5 5 5 4 4 4 3 3 3 2 2 1 1 1 1 0 -0
5 5 5 5 5 5 5 5 5 5 5 5 5 5 5 5 5 5 5 5 5 5 5 4 4 4 4 3 3 3 2 2 2 2 2 1 1 1 0 -0 -0 -1 -1
4 4 4 4 4 4 4 4 4 4 4 4 4 4 4 4 4 4 4 4 4 3 3 3 3 2 2 2 1 1 1 1 1 0 0 0 0 -0 -1 -1 -2 -2 -2
4 4 4 3 3 3 3 3 3 3 3 3 3 3 3 3 3 3 2 2 2 2 2 1 1 1 0 0 0 0 -0 -0 -0 -1 -1 -1 -2 -2 -2 -3 -3 -3 -3
3 3 3 3 2 2 2 2 2 2 2 2 2 2 2 2 2 2 1 1 1 1 0 0 -0 -0 -1 -1 -1 -1 -1 -1 -2 -2 -2 -2 -3 -3 -4 -4 -4 -5 -5
2 2 2 2 1 1 1 1 1 1 1 1 1 1 1 1 1 1 0 0 0 -0 -0 -1 -1 -1 -1 -1 -2 -2 -2 -2 -3 -3 -3 -4 -4 -5 -5 -5 -5 -5 -5
2 2 1 1 1 1 1 1 0 1 1 1 0 0 0 0 -0 -0 -0 -1 -1 -1 -1 -2 -2 -2 -2 -3 -3 -3 -3 -3 -4 -4 -5 -5 -5 -6 -6 -6 -6 -6 -6
2 2 1 1 1 1 1 0 0 0 0 0 -0 -0 -0 -1 -1 -1 -1 -1 -2 -2 -2 -3 -3 -3 -4 -4 -4 -4 -4 -5 -5 -5 -5 -6 -6 -6 -6 -7 -7 -7 -7
2 2 1 1 1 1 0 0 0 0 0 -0 -0 -1 -1 -1 -1 -2 -2 -2 -3 -3 -3 -4 -4 -4 -5 -5 -5 -5 -6 -6 -6 -6 -6 -6 -6 -6 -7 -7 -7 -7 -7
2 2 2 1 1 1 0 0 0 -0 -0 -0 -1 -1 -1 -2 -2 -2 -3 -3 -4 -4 -4 -5 -5 -5 -6 -6 -6 -6 -7 -7 -7 -7 -7 -7 -7 -7 -7 -7 -7 -7 -7
2 2 2 1 1 1 0 0 -0 -0 -0 -1 -1 -1 -2 -2 -2 -3 -3 -4 -4 -5 -5 -6 -6 -6 -6 -6 -7 -7 -7 -7 -7 -7 -7 -7 -7 -7 -7 -7 -7 -7 -7
2 2 2 1 1 1 0 0 -0 -0 -1 -1 -1 -1 -2 -2 -3 -3 -4 -4 -5 -5 -6 -6 -6 -7 -7 -7 -7 -7 -7 -8 -7 -7 -7 -7 -7 -7 -7 -7 -7 -7 -7
2 2 2 1 1 1 0 0 -0 -1 -1 -1 -1 -1 -2 -2 -3 -3 -4 -5 -5 -6 -6 -6 -7 -7 -7 -7 -7 -7 -7 -8 -8 -8 -8 -7 -7 -7 -7 -7 -7 -7 -7
2 2 2 1 1 1 0 0 -0 -1 -1 -1 -1 -2 -2 -2 -3 -3 -4 -5 -5 -6 -7 -6 -7 -7 -7 -7 -7 -7 -7 -8 -8 -8 -8 -8 -8 -8 -7 -7 -8 -8 -8
2 2 2 1 1 1 0 -0 -0 -1 -1 -1 -1 -2 -2 -3 -3 -4 -4 -5 -5 -6 -6 -6 -7 -7 -7 -7 -7 -7 -7 -8 -8 -8 -8 -8 -8 -8 -8 -8 -8 -8 -8
2 2 1 1 1 0 0 -0 -1 -1 -1 -1 -2 -2 -2 -3 -3 -4 -4 -5 -5 -6 -6 -7 -7 -7 -7 -7 -7 -8 -8 -8 -8 -8 -8 -8 -8 -8 -8 -8 -9 -9 -9
2 2 1 1 0 0 -0 -0 -1 -1 -1 -1 -2 -2 -2 -3 -3 -4 -4 -5 -5 -6 -6 -6 -7 -7 -7 -7 -8 -8 -8 -8 -8 -8 -8 -8 -9 -9 -9 -9 -9 -9 -9
1 1 1 0 0 -0 -0 -1 -1 -1 -1 -2 -2 -2 -2 -3 -3 -4 -4 -5 -5 -6 -6 -6 -7 -7 -7 -7 -7 -8 -8 -8 -8 -8 -8 -8 -9 -9 -9 -9 -9 -9 -9
1 1 0 0 -0 -0 -1 -1 -1 -2 -2 -2 -2 -2 -3 -3 -3 -4 -4 -5 -5 -6 -6 -6 -6 -7 -7 -7 -8 -8 -8 -8 -8 -8 -8 -8 -9 -9 -9 -9 -9 -9 -9
1 0 0 -0 -0 -1 -1 -1 -2 -2 -2 -2 -2 -3 -3 -3 -3 -4 -4 -5 -5 -6 -6 -6 -6 -7 -7 -7 -8 -8 -8 -8 -8 -8 -8 -8 -9 -9 -9 -9 -9 -9 -9
0 -0 -1 -1 -1 -1 -2 -2 -2 -2 -2 -3 -3 -3 -3 -3 -4 -4 -4 -5 -5 -5 -6 -6 -6 -6 -7 -7 -8 -8 -8 -8 -8 -8 -9 -9 -9 -9 -9 -9 -9 -9 -9
-0 -1 -1 -1 -2 -2 -2 -3 -3 -3 -3 -3 -3 -3 -3 -4 -4 -4 -4 -5 -5 -5 -6 -6 -6 -7 -7 -7 -7 -8 -8 -8 -8 -8 -9 -9 -9 -9 -9 -9 -9 -9 -9
-1 -1 -1 -2 -2 -3 -3 -3 -3 -3 -3 -3 -3 -3 -4 -4 -4 -4 -5 -5 -5 -5 -6 -6 -7 -7 -7 -7 -7 -8 -8 -8 -9 -9 -9 -9 -9 -9 -9 -9 -9 -9 -9
-2 -2 -2 -2 -3 -3 -3 -3 -4 -4 -3 -3 -3 -4 -4 -4 -4 -4 -5 -5 -5 -6 -6 -6 -7 -7 -7 -7 -7 -8 -8 -8 -9 -9 -9 -10 -10 -10 -10 -9 -9 -9 -9
Wind_Speed
5 5 6 6 6 7 6 7 6 7 8 8 7 7 8 8 7 6 6 6 5 5 5 4 4 3 2 2 1 0 1 2 4 0 2 1 2 4 5 7 8 9 9
4 5 6 6 7 7 7 7 7 8 8 8 8 8 9 9 9 9 8 8 7 7 6 6 5 4 5 4 3 2 1 1 2 2 2 2 2 3 3 4 5 6 6
5 5 6 6 7 7 7 7 7 7 8 8 9 9 9 9 9 9 9 9 9 9 8 7 6 6 6 5 4 3 3 2 2 2 2 2 2 2 2 2 3 2 4
5 6 6 6 6 6 6 7 7 7 8 8 9 8 8 9 9 9 9 9 9 9 9 8 7 6 5 5 4 4 4 4 4 3 3 2 2 2 2 1 1 1 2
5 5 5 5 6 6 7 7 7 8 9 8 9 9 8 8 9 9 9 9 9 9 9 9 8 8 7 5 4 4 4 3 3 3 2 2 1 1 1 1 1 0 2
5 5 5 5 6 6 6 7 7 8 8 8 9 9 9 9 13 13 10 9 8 9 8 8 9 10 10 11 10 8 6 4 3 2 1 1 1 1 1 1 1 1 2
4 4 4 5 5 6 6 7 7 7 7 8 8 8 9 11 14 14 13 9 8 8 7 7 6 7 9 7 9 10 9 9 6 2 2 1 0 0 1 1 2 3 3
4 4 4 5 5 5 6 6 6 5 6 6 7 7 7 9 12 12 12 8 7 7 6 6 5 5 4 5 6 6 6 5 5 3 2 1 2 3 4 3 3 2 3
5 4 4 5 5 5 5 5 4 4 5 5 5 6 6 6 10 10 9 5 5 5 5 5 4 4 6 7 5 4 5 5 6 6 4 3 4 5 4 2 1 1 3
5 5 5 4 5 5 4 4 3 4 4 4 4 4 4 4 7 8 7 3 3 3 4 5 5 4 6 6 3 2 3 3 3 4 5 7 6 7 7 1 3 3 2
6 5 5 5 4 4 4 3 3 3 3 3 2 2 2 3 4 5 5 2 2 1 2 2 4 6 6 6 4 1 4 2 1 2 3 4 4 3 4 3 2 4 4
6 6 5 5 4 4 4 3 3 3 3 2 1 0 2 3 3 3 4 3 2 1 1 2 4 6 7 6 5 5 5 3 1 2 3 3 3 3 4 5 6 6 8
7 6 5 5 4 4 4 4 3 3 3 2 2 2 2 2 3 3 4 4 3 0 2 4 6 7 6 4 6 6 4 1 2 2 3 3 3 4 3 4 5 7 9
8 7 6 6 5 4 3 3 3 4 3 3 3 3 2 2 3 2 2 3 3 3 3 4 6 6 4 4 4 4 2 2 2 3 4 3 3 3 3 3 3 4 4
8 7 7 6 6 5 4 4 4 4 5 5 4 4 3 3 4 5 3 3 3 4 3 1 2 2 3 3 3 3 3 3 3 2 3 4 4 4 5 4 4 5 5
8 8 6 6 5 5 4 2 5 5 5 6 7 6 4 5 5 5 6 6 7 7 2 1 2 2 3 3 4 3 3 3 3 3 4 4 5 5 6 6 6 6 8
10 8 6 6 6 6 5 5 4 3 5 5 6 6 5 5 5 6 6 6 6 6 2 2 3 4 4 4 4 4 4 4 4 4 5 5 5 6 6 7 7 7 9
10 10 9 7 7 6 6 6 5 4 3 4 5 7 7 7 6 7 7 5 3 3 2 3 4 4 4 5 5 4 5 5 4 5 5 5 6 6 7 7 7 8 9
10 8 7 7 6 6 6 6 5 5 5 4 3 4 6 6 7 7 6 2 3 4 4 4 5 5 5 5 5 5 5 6 6 6 6 7 6 6 8 8 8 13 12
9 12 10 7 7 6 6 6 6 5 5 5 5 4 3 3 3 4 3 3 4 5 5 5 5 5 5 5 5 5 6 6 7 6 7 7 7 7 9 10 10 10 10
7 9 12 8 7 7 6 7 6 6 5 5 5 6 7 5 5 5 5 5 5 5 5 5 5 6 6 5 5 6 7 7 7 7 7 7 7 8 8 9 10 11 11
7 7 7 7 7 6 6 6 6 6 6 6 5 5 9 5 4 5 5 5 5 5 5 5 5 6 6 6 6 7 7 8 8 8 8 8 8 9 9 10 11 11 11
7 7 7 6 6 9 8 6 6 6 6 6 5 5 5 5 5 5 6 6 5 5 5 5 6 6 8 10 10 8 8 10 9 8 9 9 9 10 10 11 13 13 14
7 8 8 7 7 6 7 6 6 7 6 6 6 6 6 5 6 6 6 5 5 5 7 7 7 9 11 12 13 13 14 16 15 13 12 12 12 12 12 13 14 15 15
7 7 7 7 7 7 7 7 7 7 6 6 6 6 5 5 6 6 6 5 6 6 8 9 10 11 13 15 16 16 19 21 21 18 15 12 14 15 15 16 15 16 17
7 7 7 6 7 7 7 7 7 7 7 6 6 6 5 6 6 6 6 6 6 6 7 8 11 14 16 16 18 20 21 22 23 24 20 13 14 14 15 15 17 17 18
Wind_Direction
37 39 40 31 28 31 32 24 18 19 19 19 18 22 24 21 21 30 30 29 42 38 35 43 42 41 49 36 31 342 264 231 238 139 96 97 139 150 155 151 167 186 206
48 53 47 39 36 36 31 26 28 30 27 26 29 34 33 31 31 37 40 40 46 45 40 49 47 49 50 41 42 34 9 23 175 179 134 130 137 158 145 149 167 190 205
65 64 55 44 42 38 34 32 35 37 36 36 39 40 37 36 37 39 47 50 52 50 47 50 45 50 50 42 42 38 29 32 50 118 115 98 96 124 132 156 173 183 217
75 72 63 52 49 46 44 43 42 44 44 42 43 44 44 44 43 44 51 56 57 54 51 52 51 55 60 57 52 44 44 50 53 76 91 88 92 101 121 153 181 189 239
83 77 70 65 60 57 53 52 51 51 51 48 49 46 44 50 51 52 54 60 61 59 52 48 49 56 64 67 67 55 52 58 61 67 71 82 91 101 140 134 183 234 279
92 84 77 74 68 64 62 60 59 56 53 52 50 50 51 55 59 63 67 60 58 56 52 44 42 42 50 58 66 64 62 64 59 57 53 73 78 82 96 126 138 103 291
103 93 86 85 79 72 72 69 64 62 60 56 52 52 54 56 61 65 69 67 62 56 52 45 45 42 45 39 45 46 41 43 52 82 84 68 78 150 143 156 192 203 230
115 106 103 102 94 87 81 76 69 65 63 59 55 50 51 56 64 68 71 61 58 52 48 47 45 24 36 51 46 37 26 19 29 61 128 190 204 206 195 198 210 233 261
130 123 119 116 111 104 96 91 84 81 73 66 58 51 46 44 64 71 72 57 53 39 28 32 42 13 29 46 52 34 19 360 16 25 16 332 306 296 261 175 188 264 291
145 136 129 126 126 122 116 107 100 98 92 84 67 50 44 27 56 70 77 68 53 29 14 6 10 14 16 28 69 38 353 323 337 351 353 348 345 334 326 268 189 198 231
150 145 140 141 140 136 130 126 126 118 106 96 82 32 13 15 29 52 69 96 78 41 19 349 329 346 350 348 360 322 294 316 357 336 325 323 328 329 325 315 219 186 199
157 158 158 160 160 149 145 145 145 143 135 138 136 316 323 330 341 9 30 40 73 113 325 288 295 323 334 338 341 316 325 11 19 326 317 315 316 309 304 303 290 255 235
166 170 171 169 164 159 164 167 165 169 175 196 203 228 267 299 325 351 360 356 2 78 272 302 316 325 334 336 322 328 1 14 311 300 297 288 272 269 282 298 295 284 272
177 180 178 174 170 167 168 171 171 181 189 199 208 221 244 270 275 283 298 314 322 317 302 312 329 336 343 332 331 344 340 284 275 266 276 275 277 278 282 287 294 308 299
185 185 183 181 175 175 178 190 189 203 196 195 205 205 210 243 256 263 259 244 250 257 267 239 330 332 335 326 317 308 302 309 312 293 286 295 299 300 299 297 290 294 283
188 190 187 183 182 179 178 198 222 212 214 208 202 202 224 243 267 284 295 297 304 308 315 276 292 296 295 297 301 301 295 290 283 278 280 283 290 292 295 292 283 281 282
192 190 186 186 185 186 186 190 206 235 239 233 230 234 241 258 272 285 290 294 302 321 318 276 276 280 280 281 279 274 274 276 273 272 270 272 276 280 283 284 283 280 279
192 193 190 191 190 190 193 196 197 204 226 254 254 252 254 258 270 283 289 293 294 297 261 265 267 269 269 271 271 271 274 279 274 270 267 266 265 271 275 275 273 271 276
192 192 191 188 188 191 191 192 198 206 215 228 243 264 258 262 270 281 292 257 255 266 264 261 259 261 263 264 265 266 267 270 271 269 267 264 262 264 268 269 270 275 277
195 195 186 185 186 188 189 193 199 206 214 222 231 236 239 238 248 263 260 252 253 259 260 260 260 259 258 260 263 265 268 268 269 266 265 265 262 260 265 268 270 272 271
190 192 190 188 192 192 193 198 201 205 213 223 231 235 231 226 236 245 250 252 251 256 257 259 260 261 258 257 257 260 264 267 265 264 266 266 263 265 265 267 269 269 272
187 188 190 193 193 194 198 198 198 207 216 226 233 243 254 245 236 245 250 255 252 250 249 253 258 256 252 251 254 259 263 266 265 262 263 264 263 266 267 268 269 270 271
186 189 191 193 190 202 205 200 203 210 218 223 228 233 239 240 243 247 252 255 257 259 262 258 259 264 263 259 253 248 257 264 264 261 265 268 267 267 267 267 268 269 270
192 194 196 194 192 198 201 205 209 216 220 224 229 233 235 239 247 253 254 257 261 263 267 265 262 263 268 273 270 263 259 263 265 264 258 260 264 266 266 266 266 266 267
194 196 198 196 196 201 206 210 215 218 221 226 230 233 236 239 247 253 256 258 263 266 270 272 270 270 271 272 273 274 275 277 276 272 264 260 261 260 263 265 266 269 268
197 199 200 197 198 201 205 213 220 221 223 227 229 232 236 241 249 254 258 260 265 268 272 276 272 273 276 278 279 280 282 283 283 283 280 275 271 270 269 270 270 269 271
Height
1494 1493 1492 1492 1491 1490 1490 1489 1488 1487 1486 1485 1484 1483 1482 1481 1480 1480 1479 1478 1478 1478 1477 1477 1476 1476 1476 1475 1475 1474 1474 1473 1471 1471 1471 1471 1471 1472 1474 1476 1478 1480 1482
1491 1490 1490 1489 1488 1488 1487 1486 1485 1484 1483 1482 1481 1480 1479 1478 1477 1476 1475 1474 1474 1473 1473 1472 1472 1471 1471 1471 1470 1469 1469 1468 1467 1466 1466 1466 1467 1468 1470 1471 1473 1475 1477
1488 1488 1487 1487 1486 1485 1484 1483 1483 1482 1481 1480 1479 1477 1476 1475 1474 1473 1472 1471 1470 1470 1469 1468 1468 1467 1467 1466 1466 1465 1464 1464 1463 1462 1462 1463 1464 1465 1466 1468 1469 1471 1471
1486 1486 1485 1484 1483 1483 1482 1481 1480 1479 1478 1477 1476 1475 1474 1473 1471 1470 1469 1468 1467 1467 1466 1465 1465 1464 1464 1463 1463 1462 1462 1461 1461 1460 1460 1461 1461 1462 1463 1464 1465 1466 1467
1484 1483 1483 1482 1482 1481 1480 1480 1479 1478 1477 1476 1475 1473 1472 1471 1470 1469 1468 1467 1466 1465 1464 1464 1463 1463 1463 1462 1461 1461 1460 1460 1459 1459 1459 1459 1460 1460 1461 1461 1462 1462 1462
1482 1481 1481 1481 1480 1479 1479 1478 1478 1477 1476 1475 1474 1473 1472 1471 1470 1469 1468 1467 1466 1465 1464 1464 1463 1463 1462 1462 1461 1460 1460 1459 1458 1458 1458 1457 1457 1457 1458 1458 1458 1458 1458
1480 1480 1480 1479 1479 1479 1478 1478 1478 1477 1476 1476 1475 1474 1473 1472 1471 1470 1469 1468 1467 1466 1465 1465 1464 1463 1462 1462 1461 1460 1459 1458 1457 1456 1456 1455 1455 1454 1455 1455 1454 1454 1454
1479 1479 1479 1479 1479 1479 1479 1478 1478 1478 1477 1476 1476 1475 1474 1473 1472 1471 1470 1469 1467 1466 1465 1464 1464 1463 1462 1460 1459 1458 1457 1456 1455 1454 1453 1453 1452 1452 1452 1452 1451 1450 1450
1478 1478 1478 1479 1479 1479 1479 1479 1479 1478 1478 1477 1476 1476 1475 1474 1473 1471 1470 1469 1468 1466 1465 1464 1463 1462 1460 1459 1458 1456 1455 1454 1453 1452 1451 1450 1450 1449 1449 1448 1447 1446 1445
1477 1478 1478 1479 1479 1480 1480 1480 1479 1479 1478 1478 1477 1476 1475 1474 1473 1471 1470 1469 1467 1465 1464 1463 1461 1460 1458 1456 1455 1454 1452 1451 1450 1449 1448 1448 1447 1446 1445 1445 1444 1443 1442
1477 1478 1478 1479 1479 1480 1480 1480 1479 1479 1479 1478 1477 1476 1475 1474 1472 1471 1469 1468 1466 1464 1463 1461 1459 1458 1456 1454 1453 1451 1450 1449 1447 1446 1445 1444 1444 1443 1442 1442 1441 1440 1439
1477 1477 1478 1479 1479 1479 1479 1479 1479 1479 1478 1478 1477 1476 1475 1473 1471 1470 1468 1466 1464 1463 1461 1459 1457 1456 1454 1452 1451 1449 1448 1446 1445 1444 1443 1442 1441 1440 1439 1438 1437 1436 1435
1476 1477 1477 1478 1478 1479 1479 1479 1479 1478 1477 1477 1476 1474 1473 1472 1470 1468 1466 1464 1462 1460 1458 1457 1455 1453 1451 1450 1449 1447 1446 1444 1443 1442 1440 1439 1438 1437 1436 1435 1433 1432 1430
1474 1475 1476 1476 1477 1477 1477 1477 1477 1477 1476 1475 1474 1472 1471 1469 1468 1466 1464 1462 1460 1458 1456 1454 1452 1451 1449 1448 1446 1445 1443 1442 1440 1439 1437 1436 1435 1433 1432 1430 1428 1427 1425
1472 1473 1474 1474 1475 1475 1475 1475 1475 1475 1474 1473 1472 1470 1468 1467 1465 1463 1461 1459 1457 1455 1453 1451 1450 1448 1447 1445 1444 1442 1441 1439 1438 1436 1434 1433 1431 1429 1428 1426 1424 1422 1419
1468 1470 1471 1472 1472 1473 1473 1473 1472 1472 1471 1470 1469 1467 1465 1464 1462 1460 1458 1456 1454 1452 1450 1448 1447 1445 1443 1442 1440 1439 1437 1436 1434 1432 1431 1429 1427 1425 1423 1421 1419 1416 1414
1465 1466 1467 1468 1469 1470 1470 1470 1470 1469 1468 1467 1466 1464 1463 1461 1459 1457 1455 1453 1451 1449 1447 1445 1443 1442 1440 1438 1437 1435 1433 1432 1430 1428 1426 1424 1422 1420 1418 1415 1413 1411 1408
1460 1462 1463 1464 1465 1466 1466 1466 1466 1466 1465 1464 1463 1461 1460 1458 1456 1454 1452 1450 1448 1446 1444 1442 1440 1438 1436 1435 1433 1431 1429 1427 1426 1424 1422 1419 1417 1415 1412 1410 1408 1405 1402
1455 1457 1458 1460 1461 1461 1462 1462 1462 1462 1461 1460 1459 1458 1456 1454 1453 1451 1449 1447 1444 1442 1441 1438 1436 1434 1433 1431 1429 1427 1424 1423 1421 1418 1416 1414 1412 1409 1406 1404 1401 1399 1396
1449 1451 1453 1454 1455 1456 1457 1457 1458 1457 1457 1456 1455 1454 1452 1451 1449 1447 1445 1443 1441 1439 1437 1435 1433 1430 1428 1426 1424 1422 1420 1418 1415 1413 1411 1408 1406 1403 1400 1398 1395 1392 1389
1443 1445 1447 1448 1449 1450 1451 1452 1453 1453 1452 1452 1451 1450 1448 1446 1445 1443 1441 1439 1437 1435 1432 1430 1428 1426 1424 1422 1419 1417 1414 1412 1410 1407 1405 1402 1400 1397 1394 1391 1388 1385 1381
1436 1438 1440 1442 1443 1445 1446 1447 1447 1447 1447 1447 1446 1445 1443 1442 1440 1438 1436 1434 1432 1430 1428 1426 1423 1421 1419 1417 1414 1411 1409 1406 1404 1401 1398 1395 1393 1390 1387 1384 1381 1377 1374
1430 1431 1433 1435 1437 1438 1440 1441 1441 1442 1442 1442 1441 1440 1439 1437 1435 1433 1432 1430 1428 1426 1423 1421 1418 1416 1414 1411 1409 1406 1403 1400 1398 1395 1391 1388 1385 1382 1379 1376 1373 1369 1366
1423 1425 1426 1428 1430 1432 1433 1434 1436 1436 1437 1436 1436 1435 1434 1432 1430 1429 1427 1425 1423 1421 1418 1416 1413 1411 1408 1406 1403 1400 1397 1394 1391 1388 1384 1381 1377 1374 1371 1367 1364 1361 1357
1417 1418 1420 1422 1423 1425 1427 1428 1430 1431 1431 1431 1430 1429 1428 1427 1425 1424 1422 1420 1417 1415 1413 1411 1408 1405 1402 1399 1396 1393 1390 1387 1384 1380 1377 1373 1369 1366 1363 1359 1356 1352 1348
1411 1412 1414 1416 1417 1419 1421 1422 1424 1425 1426 1426 1425 1424 1423 1422 1420 1418 1416 1414 1412 1409 1407 1405 1402 1399 1396 1393 1390 1386 1383 1380 1377 1374 1371 1366 1362 1358 1355 1351 1347 1343 1338